Time,TemperatureF,DewpointF,PressureIn,WindDirection,WindDirectionDegrees,WindSpeedMPH,WindSpeedGustMPH,Humidity,HourlyPrecipIn,Conditions,Clouds,dailyrainin,SoftwareType,DateUTC
2013-03-19 00:03:00,28.0,27.0,29.44,ESE,123,0.0,0.0,95,0.00,,,0.01,,2013-03-19 04:03:00,
2013-03-19 00:13:00,28.0,27.0,29.44,ESE,123,0.0,0.0,95,0.00,,,0.01,,2013-03-19 04:13:00,
2013-03-19 00:23:00,28.0,27.0,29.43,ESE,123,0.0,0.0,95,0.00,,,0.01,,2013-03-19 04:23:00,
2013-03-19 00:33:00,27.0,26.0,29.42,ESE,123,0.0,0.0,95,0.00,,,0.01,,2013-03-19 04:33:00,
2013-03-19 00:43:00,27.0,26.0,29.42,ESE,123,0.0,0.0,95,0.00,,,0.01,,2013-03-19 04:43:00,
2013-03-19 00:53:00,27.0,26.0,29.42,ESE,123,0.0,0.0,95,0.00,,,0.01,,2013-03-19 04:53:00,
2013-03-19 01:02:00,27.0,26.0,29.41,ESE,123,0.0,0.0,95,0.00,,,0.01,,2013-03-19 05:02:00,
2013-03-19 01:12:00,27.0,26.0,29.41,ESE,123,0.0,0.0,95,0.00,,,0.01,,2013-03-19 05:12:00,
2013-03-19 01:22:00,27.0,26.0,29.41,ESE,123,0.0,0.0,95,0.00,,,0.01,,2013-03-19 05:22:00,
2013-03-19 01:32:00,27.0,26.0,29.41,ESE,123,0.0,0.0,95,0.00,,,0.01,,2013-03-19 05:32:00,
2013-03-19 01:43:00,27.0,26.0,29.41,ESE,123,0.0,0.0,95,0.00,,,0.01,,2013-03-19 05:43:00,
2013-03-19 01:52:00,27.0,26.0,29.40,ESE,123,0.0,2.0,95,0.00,,,0.01,,2013-03-19 05:52:00,
2013-03-19 02:02:00,27.0,26.0,29.39,ESE,123,0.0,1.0,95,0.00,,,0.01,,2013-03-19 06:02:00,
2013-03-19 02:12:00,27.0,26.0,29.39,ESE,123,0.0,1.0,95,0.00,,,0.01,,2013-03-19 06:12:00,
2013-03-19 02:22:00,27.0,26.0,29.39,ESE,123,0.0,2.0,94,0.00,,,0.01,,2013-03-19 06:22:00,
2013-03-19 02:32:00,27.0,26.0,29.39,ESE,123,0.0,3.0,94,0.00,,,0.01,,2013-03-19 06:32:00,
2013-03-19 02:42:00,27.0,26.0,29.39,ESE,123,0.0,3.0,94,0.00,,,0.01,,2013-03-19 06:42:00,
2013-03-19 02:52:00,27.0,26.0,29.39,ESE,123,0.0,2.0,94,0.00,,,0.01,,2013-03-19 06:52:00,
2013-03-19 03:02:00,27.0,25.0,29.39,SE,124,0.0,3.0,93,0.00,,,0.01,,2013-03-19 07:02:00,
2013-03-19 03:12:00,27.0,25.0,29.39,SE,124,0.0,3.0,93,0.00,,,0.01,,2013-03-19 07:12:00,
2013-03-19 03:21:00,27.0,25.0,29.39,SE,125,0.0,2.0,93,0.00,,,0.01,,2013-03-19 07:21:00,
2013-03-19 03:32:00,27.0,25.0,29.39,SE,125,0.0,2.0,93,0.00,,,0.01,,2013-03-19 07:32:00,
2013-03-19 03:42:00,27.0,25.0,29.39,SE,125,0.0,2.0,93,0.00,,,0.01,,2013-03-19 07:42:00,
2013-03-19 03:52:00,27.0,25.0,29.39,WSW,253,0.0,5.0,92,0.00,,,0.01,,2013-03-19 07:52:00,
2013-03-19 04:02:00,26.0,23.0,29.39,West,263,3.0,8.0,88,0.00,,,0.01,,2013-03-19 08:02:00,
2013-03-19 04:12:00,26.0,23.0,29.39,West,263,3.0,8.0,88,0.00,,,0.01,,2013-03-19 08:12:00,
2013-03-19 04:22:00,26.0,23.0,29.39,West,263,3.0,8.0,88,0.00,,,0.01,,2013-03-19 08:22:00,
2013-03-19 04:32:00,25.0,21.0,29.39,WSW,240,2.0,9.0,83,0.00,,,0.01,,2013-03-19 08:32:00,
2013-03-19 04:42:00,25.0,21.0,29.39,WSW,240,2.0,9.0,83,0.00,,,0.01,,2013-03-19 08:42:00,
2013-03-19 04:52:00,24.0,20.0,29.39,West,261,2.0,16.0,84,0.00,,,0.01,,2013-03-19 08:52:00,
2013-03-19 05:02:00,24.0,20.0,29.39,SSW,202,2.0,11.0,85,0.00,,,0.01,,2013-03-19 09:02:00,
2013-03-19 05:12:00,24.0,20.0,29.39,SSW,202,2.0,11.0,85,0.00,,,0.01,,2013-03-19 09:12:00,
2013-03-19 05:22:00,24.0,20.0,29.39,SSW,202,2.0,11.0,85,0.00,,,0.01,,2013-03-19 09:22:00,
2013-03-19 05:32:00,23.0,18.0,29.39,WSW,246,2.0,10.0,81,0.00,,,0.01,,2013-03-19 09:32:00,
2013-03-19 05:53:00,23.0,18.0,29.38,WSW,255,3.0,8.0,81,0.00,,,0.01,,2013-03-19 09:53:00,
2013-03-19 06:03:00,22.0,17.0,29.38,WSW,250,4.0,12.0,81,0.00,,,0.01,,2013-03-19 10:03:00,
2013-03-19 06:12:00,22.0,17.0,29.38,WSW,250,4.0,12.0,81,0.00,,,0.01,,2013-03-19 10:12:00,
2013-03-19 06:23:00,22.0,17.0,29.38,WSW,240,6.0,18.0,82,0.00,,,0.01,,2013-03-19 10:23:00,
2013-03-19 06:32:00,22.0,17.0,29.38,SSW,203,2.0,13.0,82,0.00,,,0.01,,2013-03-19 10:32:00,
2013-03-19 06:42:00,22.0,17.0,29.38,SSW,203,2.0,13.0,82,0.00,,,0.01,,2013-03-19 10:42:00,
2013-03-19 06:53:00,22.0,17.0,29.38,West,261,3.0,12.0,81,0.00,,,0.01,,2013-03-19 10:53:00,
2013-03-19 07:02:00,22.0,16.0,29.38,West,277,5.0,14.0,79,0.00,,,0.01,,2013-03-19 11:02:00,
2013-03-19 07:12:00,22.0,16.0,29.38,West,277,5.0,14.0,79,0.00,,,0.01,,2013-03-19 11:12:00,
2013-03-19 07:22:00,22.0,16.0,29.38,West,277,5.0,14.0,79,0.00,,,0.01,,2013-03-19 11:22:00,
2013-03-19 07:32:00,23.0,17.0,29.38,WNW,294,3.0,15.0,77,0.00,,,0.01,,2013-03-19 11:32:00,
2013-03-19 07:52:00,23.0,16.0,29.39,West,264,5.0,12.0,75,0.00,,,0.01,,2013-03-19 11:52:00,
2013-03-19 08:02:00,23.0,17.0,29.39,WNW,301,3.0,15.0,78,0.00,,,0.01,,2013-03-19 12:02:00,
2013-03-19 08:12:00,23.0,17.0,29.39,WNW,301,3.0,15.0,78,0.00,,,0.01,,2013-03-19 12:12:00,
2013-03-19 08:22:00,23.0,17.0,29.39,West,281,4.0,15.0,79,0.00,,,0.01,,2013-03-19 12:22:00,
2013-03-19 08:33:00,24.0,19.0,29.41,West,262,5.0,15.0,80,0.00,,,0.01,,2013-03-19 12:33:00,
2013-03-19 08:42:00,24.0,19.0,29.41,West,262,5.0,15.0,80,0.00,,,0.01,,2013-03-19 12:42:00,
2013-03-19 08:52:00,24.0,19.0,29.41,West,262,5.0,15.0,80,0.00,,,0.01,,2013-03-19 12:52:00,
2013-03-19 09:02:00,24.0,18.0,29.41,West,260,3.0,12.0,78,0.00,,,0.01,,2013-03-19 13:02:00,
2013-03-19 09:12:00,24.0,18.0,29.41,West,260,3.0,12.0,78,0.00,,,0.01,,2013-03-19 13:12:00,
2013-03-19 09:22:00,25.0,19.0,29.41,WSW,241,3.0,12.0,78,0.00,,,0.01,,2013-03-19 13:22:00,
2013-03-19 09:32:00,25.0,19.0,29.42,WNW,286,5.0,13.0,78,0.00,,,0.01,,2013-03-19 13:32:00,
2013-03-19 09:42:00,25.0,19.0,29.42,WNW,286,5.0,13.0,78,0.00,,,0.01,,2013-03-19 13:42:00,
2013-03-19 09:53:00,25.0,19.0,29.42,West,259,5.0,16.0,78,0.00,,,0.01,,2013-03-19 13:53:00,
2013-03-19 10:02:00,25.0,19.0,29.42,SW,234,4.0,15.0,78,0.00,,,0.01,,2013-03-19 14:02:00,
2013-03-19 10:12:00,25.0,19.0,29.42,SW,234,4.0,15.0,78,0.00,,,0.01,,2013-03-19 14:12:00,
2013-03-19 10:22:00,26.0,19.0,29.42,NNW,327,6.0,15.0,76,0.00,,,0.01,,2013-03-19 14:22:00,
2013-03-19 10:32:00,27.0,20.0,29.43,West,275,6.0,23.0,73,0.00,,,0.01,,2013-03-19 14:32:00,
2013-03-19 10:42:00,27.0,20.0,29.43,West,275,6.0,23.0,73,0.00,,,0.01,,2013-03-19 14:42:00,
2013-03-19 10:52:00,28.0,19.0,29.43,West,263,6.0,18.0,69,0.00,,,0.01,,2013-03-19 14:52:00,
2013-03-19 11:02:00,27.0,18.0,29.44,WNW,286,9.0,21.0,69,0.00,,,0.01,,2013-03-19 15:02:00,
2013-03-19 11:12:00,27.0,18.0,29.44,WNW,286,9.0,21.0,69,0.00,,,0.01,,2013-03-19 15:12:00,
2013-03-19 11:22:00,27.0,19.0,29.44,West,269,5.0,17.0,70,0.00,,,0.01,,2013-03-19 15:22:00,
2013-03-19 11:33:00,27.0,18.0,29.45,WSW,256,8.0,21.0,68,0.00,,,0.01,,2013-03-19 15:33:00,
2013-03-19 11:43:00,27.0,18.0,29.45,WSW,256,8.0,21.0,68,0.00,,,0.01,,2013-03-19 15:43:00,
2013-03-19 11:53:00,27.0,18.0,29.45,WSW,248,10.0,21.0,68,0.00,,,0.01,,2013-03-19 15:53:00,
2013-03-19 12:03:00,27.0,18.0,29.46,WNW,295,6.0,27.0,68,0.00,,,0.01,,2013-03-19 16:03:00,
2013-03-19 12:13:00,27.0,18.0,29.46,WNW,295,6.0,27.0,68,0.00,,,0.01,,2013-03-19 16:13:00,
2013-03-19 12:24:00,28.0,18.0,29.46,West,259,10.0,23.0,65,0.00,,,0.00,,2013-03-19 16:24:00,
2013-03-19 12:34:00,28.0,18.0,29.47,West,261,9.0,24.0,65,0.00,,,0.00,,2013-03-19 16:34:00,
2013-03-19 12:44:00,28.0,18.0,29.47,West,261,9.0,24.0,65,0.00,,,0.00,,2013-03-19 16:44:00,
2013-03-19 12:53:00,28.0,17.0,29.48,West,277,9.0,26.0,64,0.00,,,0.00,,2013-03-19 16:53:00,
2013-03-19 13:03:00,28.0,18.0,29.49,West,273,9.0,26.0,65,0.00,,,0.00,,2013-03-19 17:03:00,
2013-03-19 13:13:00,28.0,18.0,29.49,West,273,9.0,26.0,65,0.00,,,0.00,,2013-03-19 17:13:00,
2013-03-19 13:23:00,28.0,17.0,29.50,West,263,13.0,26.0,63,0.01,,,0.01,,2013-03-19 17:23:00,
2013-03-19 13:34:00,27.0,16.0,29.51,WSW,250,14.0,26.0,63,0.01,,,0.01,,2013-03-19 17:34:00,
2013-03-19 13:44:00,27.0,16.0,29.51,WSW,250,14.0,26.0,63,0.01,,,0.01,,2013-03-19 17:44:00,
2013-03-19 13:52:00,27.0,16.0,29.52,WSW,257,10.0,30.0,62,0.02,,,0.02,,2013-03-19 17:52:00,
2013-03-19 14:03:00,28.0,16.0,29.53,NW,309,9.0,26.0,61,0.02,,,0.02,,2013-03-19 18:03:00,
2013-03-19 14:13:00,28.0,16.0,29.53,NW,309,9.0,26.0,61,0.02,,,0.02,,2013-03-19 18:13:00,
2013-03-19 14:23:00,28.0,16.0,29.54,WSW,252,9.0,21.0,59,0.01,,,0.02,,2013-03-19 18:23:00,
2013-03-19 14:33:00,28.0,16.0,29.54,WSW,252,9.0,21.0,59,0.01,,,0.02,,2013-03-19 18:33:00,
2013-03-19 14:43:00,28.0,16.0,29.54,WSW,252,9.0,21.0,59,0.01,,,0.02,,2013-03-19 18:43:00,
2013-03-19 14:52:00,27.0,15.0,29.56,WNW,283,8.0,24.0,59,0.02,,,0.03,,2013-03-19 18:52:00,
2013-03-19 15:02:00,28.0,16.0,29.57,West,269,9.0,21.0,59,0.01,,,0.03,,2013-03-19 19:02:00,
2013-03-19 15:12:00,28.0,16.0,29.57,West,269,9.0,21.0,59,0.01,,,0.03,,2013-03-19 19:12:00,
2013-03-19 15:22:00,28.0,15.0,29.58,WNW,286,8.0,25.0,57,0.02,,,0.04,,2013-03-19 19:22:00,
2013-03-19 15:33:00,28.0,15.0,29.58,WNW,284,6.0,18.0,58,0.02,,,0.04,,2013-03-19 19:33:00,
2013-03-19 15:42:00,28.0,15.0,29.58,WNW,284,6.0,18.0,58,0.02,,,0.04,,2013-03-19 19:42:00,
2013-03-19 15:52:00,27.0,15.0,29.59,WNW,296,4.0,20.0,59,0.01,,,0.04,,2013-03-19 19:52:00,
2013-03-19 16:02:00,27.0,15.0,29.59,WNW,296,4.0,20.0,59,0.01,,,0.04,,2013-03-19 20:02:00,
2013-03-19 16:12:00,27.0,15.0,29.59,WNW,296,4.0,20.0,59,0.01,,,0.04,,2013-03-19 20:12:00,
2013-03-19 16:22:00,27.0,14.0,29.61,SW,232,9.0,27.0,57,0.01,,,0.05,,2013-03-19 20:22:00,
2013-03-19 16:32:00,27.0,13.0,29.62,SW,234,8.0,22.0,56,0.01,,,0.05,,2013-03-19 20:32:00,
2013-03-19 16:42:00,27.0,13.0,29.62,SW,234,8.0,22.0,56,0.01,,,0.05,,2013-03-19 20:42:00,
2013-03-19 16:52:00,27.0,13.0,29.63,WSW,253,10.0,22.0,55,0.02,,,0.06,,2013-03-19 20:52:00,
2013-03-19 17:02:00,27.0,13.0,29.64,WNW,284,6.0,20.0,56,0.01,,,0.06,,2013-03-19 21:02:00,
2013-03-19 17:12:00,27.0,13.0,29.64,WNW,284,6.0,20.0,56,0.01,,,0.06,,2013-03-19 21:12:00,
2013-03-19 17:22:00,27.0,13.0,29.65,WNW,298,3.0,22.0,56,0.01,,,0.06,,2013-03-19 21:22:00,
2013-03-19 17:34:00,27.0,14.0,29.66,WNW,290,6.0,20.0,58,0.01,,,0.06,,2013-03-19 21:34:00,
2013-03-19 17:43:00,27.0,14.0,29.66,WNW,290,6.0,20.0,58,0.01,,,0.06,,2013-03-19 21:43:00,
2013-03-19 17:52:00,26.0,13.0,29.67,WNW,292,12.0,24.0,57,0.00,,,0.06,,2013-03-19 21:52:00,
2013-03-19 18:03:00,26.0,13.0,29.68,West,261,11.0,21.0,57,0.00,,,0.06,,2013-03-19 22:03:00,
2013-03-19 18:12:00,26.0,13.0,29.68,West,261,11.0,21.0,57,0.00,,,0.06,,2013-03-19 22:12:00,
2013-03-19 18:23:00,26.0,13.0,29.68,West,261,11.0,21.0,57,0.00,,,0.06,,2013-03-19 22:23:00,
2013-03-19 18:33:00,26.0,14.0,29.70,WNW,297,8.0,22.0,60,0.00,,,0.06,,2013-03-19 22:33:00,
2013-03-19 18:44:00,26.0,14.0,29.70,WNW,297,8.0,22.0,60,0.00,,,0.06,,2013-03-19 22:44:00,
2013-03-19 18:53:00,25.0,15.0,29.70,WNW,282,7.0,20.0,64,0.00,,,0.06,,2013-03-19 22:53:00,
2013-03-19 19:02:00,25.0,15.0,29.71,WNW,284,6.0,15.0,64,0.00,,,0.06,,2013-03-19 23:02:00,
2013-03-19 19:12:00,25.0,15.0,29.71,WNW,284,6.0,15.0,64,0.00,,,0.06,,2013-03-19 23:12:00,
2013-03-19 19:22:00,25.0,15.0,29.71,WNW,284,6.0,15.0,64,0.00,,,0.06,,2013-03-19 23:22:00,
2013-03-19 19:32:00,25.0,14.0,29.72,WNW,291,5.0,17.0,62,0.00,,,0.06,,2013-03-19 23:32:00,
2013-03-19 19:43:00,25.0,14.0,29.72,WNW,291,5.0,17.0,62,0.00,,,0.06,,2013-03-19 23:43:00,
2013-03-19 19:53:00,24.0,12.0,29.74,NW,317,8.0,22.0,59,0.00,,,0.06,,2013-03-19 23:53:00,
2013-03-19 20:03:00,24.0,12.0,29.74,WNW,288,6.0,13.0,60,0.00,,,0.06,,2013-03-20 00:03:00,
2013-03-19 20:13:00,24.0,12.0,29.74,WNW,288,6.0,13.0,60,0.00,,,0.06,,2013-03-20 00:13:00,
2013-03-19 20:22:00,24.0,12.0,29.75,WNW,292,5.0,17.0,60,0.00,,,0.06,,2013-03-20 00:22:00,
2013-03-19 20:33:00,23.0,11.0,29.75,West,268,3.0,13.0,60,0.00,,,0.06,,2013-03-20 00:33:00,
2013-03-19 20:42:00,23.0,11.0,29.75,West,268,3.0,13.0,60,0.00,,,0.06,,2013-03-20 00:42:00,
2013-03-19 20:52:00,23.0,12.0,29.77,West,273,2.0,16.0,61,0.00,,,0.06,,2013-03-20 00:52:00,
2013-03-19 21:03:00,23.0,12.0,29.77,WNW,284,1.0,15.0,63,0.00,,,0.06,,2013-03-20 01:03:00,
2013-03-19 21:12:00,23.0,12.0,29.77,WNW,284,1.0,15.0,63,0.00,,,0.06,,2013-03-20 01:12:00,
2013-03-19 21:22:00,23.0,13.0,29.77,West,281,1.0,13.0,64,0.00,,,0.06,,2013-03-20 01:22:00,
2013-03-19 21:32:00,22.0,12.0,29.78,WSW,257,2.0,13.0,65,0.00,,,0.06,,2013-03-20 01:32:00,
2013-03-19 21:42:00,22.0,12.0,29.78,WSW,257,2.0,13.0,65,0.00,,,0.06,,2013-03-20 01:42:00,
2013-03-19 21:52:00,22.0,12.0,29.78,West,259,2.0,14.0,66,0.00,,,0.06,,2013-03-20 01:52:00,
2013-03-19 22:02:00,22.0,13.0,29.78,WNW,286,0.0,11.0,67,0.00,,,0.06,,2013-03-20 02:02:00,
2013-03-19 22:12:00,22.0,13.0,29.78,WNW,286,0.0,11.0,67,0.00,,,0.06,,2013-03-20 02:12:00,
2013-03-19 22:22:00,21.0,12.0,29.78,WNW,290,3.0,17.0,68,0.00,,,0.06,,2013-03-20 02:22:00,
2013-03-19 22:32:00,21.0,12.0,29.78,West,268,3.0,10.0,68,0.00,,,0.06,,2013-03-20 02:32:00,
2013-03-19 22:42:00,21.0,12.0,29.78,West,268,3.0,10.0,68,0.00,,,0.06,,2013-03-20 02:42:00,
2013-03-19 22:52:00,21.0,12.0,29.78,NW,305,3.0,14.0,68,0.00,,,0.06,,2013-03-20 02:52:00,
2013-03-19 23:02:00,21.0,12.0,29.78,WNW,292,2.0,9.0,68,0.00,,,0.06,,2013-03-20 03:02:00,
2013-03-19 23:12:00,21.0,12.0,29.78,WNW,292,2.0,9.0,68,0.00,,,0.06,,2013-03-20 03:12:00,
2013-03-19 23:22:00,21.0,12.0,29.78,WNW,292,2.0,9.0,68,0.00,,,0.06,,2013-03-20 03:22:00,
2013-03-19 23:34:00,21.0,13.0,29.80,West,275,0.0,7.0,70,0.00,,,0.06,,2013-03-20 03:34:00,
2013-03-19 23:43:00,21.0,13.0,29.80,West,275,0.0,7.0,70,0.00,,,0.06,,2013-03-20 03:43:00,
2013-03-19 23:53:00,21.0,13.0,29.79,West,281,2.0,7.0,70,0.00,,,0.06,,2013-03-20 03:53:00,